Location: Unspecified
(0.0000°N, 0.0000°E)
Time: 06:54:35
(UTC+00:00)

LEMUR 2 GREENBERG - Pass Details

Date: 20 January 2026
Orbit: 478 x 492 km, 97.4° (Epoch: 10 February)

Event Time Altitude Azimuth Distance (km) Brightness Sun altitude
Rises 05:28:33 0° 172° (S) 2,580 ? -9.9°
Reaches altitude 10° 05:30:38 10° 173° (S) 1,695 ? -9.5°
Maximum altitude 05:34:16 76° 258° (WSW) 514 ? -8.6°
Drops below altitude 10° 05:37:54 10° 345° (NNW) 1,684 ? -7.8°
Sets 05:39:58 0° 346° (NNW) 2,561 ? -7.3°
